Flag for Belgium Weather past 2 weeks in Mons, Belgium

Now
55 °F

Partly sunny.


Feels Like: 52 °F
Forecast: 51 / 60 °F
Wind: 14 mph from South

Location: Chievres

Current Time: Oct 24, 2014 at 1:35:26 PM

Latest Report: Oct 24, 2014 at 12:25 PM


Visibility: N/A

Pressure: 30.09 "Hg

Humidity: 82%

Dew point: 50 °F

Location of MonsLocation

Historic Weather in Mons — Graph

°F

Mons temperature yesterday

Maximum temperature yesterday: 57 °F (at 3:25 PM)
Minimum temperature yesterday: 46 °F (at 2:25 AM)
Average temperature yesterday: 52 °F

Past Weeks' High & Low Weather Summary

 TemperatureHumidityPressure
High73 °F (Oct 18, 3:25 PM)100% (Oct 11, 2:25 AM)30.24 "Hg (Oct 11, 2:25 AM)
Low43 °F (Oct 22, 7:25 AM)59% (Oct 22, 3:25 PM)29.59 "Hg (Oct 13, 3:25 AM)
Average56 °F85%29.90 "Hg
* Reported Oct 9 12:25 PM — Oct 24 12:25 PM, Mons, Weather by CustomWeather, © 2014

Note: Actual official high and low records may vary slightly from our data, if they occured in-between our weather recording intervals... More about our weather records

Advertising

Mons weather history for previous 24 hours

 ConditionsComfort  
Time TempWeatherWind HumidityBarometerVisibility
12:25 PM
Oct 24
55 °FPartly sunny.14 mph82%30.09 "HgN/A
11:25 AM54 °FBroken clouds.12 mph88%30.12 "HgN/A
10:54 AM52 °FMostly cloudy.13 mph88%30.12 "Hg4 mi
10:25 AM52 °FPartly sunny.14 mph88%30.12 "HgN/A
9:25 AM52 °FPartly sunny.12 mph88%30.12 "HgN/A
8:25 AM52 °FPassing clouds.10 mph88%30.12 "HgN/A
7:25 AM52 °FPassing clouds.10 mph82%30.09 "HgN/A
6:25 AM52 °FPassing clouds.10 mph82%30.12 "HgN/A
5:25 AM52 °FPassing clouds.8 mph82%30.12 "HgN/A
4:25 AM52 °FPartly cloudy.10 mph77%30.12 "HgN/A
3:25 AM52 °FMostly cloudy.8 mph77%30.15 "HgN/A
2:25 AM52 °FPassing clouds.9 mph77%30.15 "HgN/A
1:25 AM52 °FOvercast.7 mph77%30.15 "HgN/A
12:25 AM52 °FPassing clouds.7 mph82%30.18 "HgN/A
11:25 PM
Oct 23
52 °FOvercast.7 mph82%30.18 "HgN/A
10:25 PM52 °FOvercast.8 mph77%30.18 "HgN/A
9:25 PM54 °FPassing clouds.10 mph72%30.18 "HgN/A
8:25 PM54 °FOvercast.9 mph77%30.18 "HgN/A
7:25 PM55 °FPartly sunny.9 mph77%30.18 "HgN/A
6:25 PM55 °FPartly sunny.7 mph82%30.18 "HgN/A
5:25 PM57 °FOvercast.6 mph77%30.18 "HgN/A
4:25 PM57 °FOvercast.9 mph77%30.21 "HgN/A
3:25 PM57 °FOvercast.10 mph77%30.21 "HgN/A
2:25 PM55 °FPartly sunny.9 mph82%30.21 "HgN/A
1:25 PM55 °FPartly sunny.10 mph82%30.21 "HgN/A
Weather by CustomWeather, © 2014

See weather overviewHow to use our weather pages